GTESM EGLA-EGBP

Flight info

Callsign GTESM
Flight time 0h 49m
Altitude 9000
Route FONZU DCT FARJO DCT SOMOT DCT OF DCT ACKEC
Aircraft DA42/L-SBDGRY/S

Departure

Time 2026-04-26 15:03
Airport Bodmin Airfield (EGLA)

Arrival

Time 2026-04-26 15:52
Airport Cotswold Airport (EGBP)
Time Latitude Longitude Altitude Speed Heading
2026-04-26 14:49 50.49896 -4.66255 650 ft 0 kts 317°
2026-04-26 14:56 50.49897 -4.66257 616 ft 0 kts 283°
2026-04-26 14:57 50.49897 -4.66256 616 ft 0 kts 283°
2026-04-26 14:57 50.49897 -4.66262 617 ft 4 kts 271°
2026-04-26 14:58 50.49898 -4.66287 627 ft 1 kts 285°
2026-04-26 14:58 50.49927 -4.66329 620 ft 4 kts 333°
2026-04-26 14:58 50.49990 -4.66328 626 ft 14 kts 340°
2026-04-26 14:58 50.50010 -4.66411 632 ft 0 kts 269°
2026-04-26 14:59 50.50009 -4.66417 633 ft 2 kts 265°
2026-04-26 14:59 50.50006 -4.66450 640 ft 3 kts 240°
2026-04-26 14:59 50.49951 -4.66467 647 ft 13 kts 143°
2026-04-26 14:59 50.49910 -4.66406 646 ft 18 kts 137°
2026-04-26 15:00 50.49834 -4.66280 635 ft 6 kts 142°
2026-04-26 15:00 50.49829 -4.66274 635 ft 0 kts 135°
2026-04-26 15:00 50.49797 -4.66238 632 ft 4 kts 192°
2026-04-26 15:00 50.49797 -4.66258 638 ft 5 kts 304°
2026-04-26 15:01 50.49798 -4.66260 638 ft 0 kts 308°
2026-04-26 15:02 50.49821 -4.66304 637 ft 18 kts 303°
2026-04-26 15:02 50.50014 -4.66669 656 ft 69 kts 310°
2026-04-26 15:02 50.50360 -4.67384 794 ft 91 kts 306°
2026-04-26 15:03 50.50769 -4.68250 1046 ft 107 kts 307°
2026-04-26 15:03 50.51339 -4.69095 1294 ft 123 kts 338°
2026-04-26 15:03 50.52193 -4.69118 1550 ft 128 kts 24°
2026-04-26 15:03 50.52821 -4.68165 1846 ft 127 kts 70°
2026-04-26 15:04 50.53115 -4.66870 2275 ft 122 kts 67°
2026-04-26 15:04 50.53519 -4.65698 2616 ft 122 kts 62°
2026-04-26 15:04 50.53940 -4.64545 2906 ft 123 kts 61°
2026-04-26 15:04 50.54382 -4.63392 3302 ft 124 kts 62°
2026-04-26 15:05 50.54824 -4.62225 3648 ft 124 kts 61°
2026-04-26 15:05 50.55123 -4.61449 3842 ft 126 kts 62°
2026-04-26 15:05 50.55739 -4.59847 4206 ft 129 kts 61°
2026-04-26 15:05 50.56200 -4.58644 4460 ft 131 kts 62°
2026-04-26 15:06 50.56676 -4.57404 4736 ft 133 kts 61°
2026-04-26 15:06 50.57158 -4.56145 4983 ft 135 kts 60°
2026-04-26 15:06 50.57648 -4.54875 5293 ft 136 kts 60°
2026-04-26 15:06 50.58133 -4.53611 5570 ft 137 kts 61°
2026-04-26 15:07 50.59129 -4.51020 5983 ft 145 kts 60°
2026-04-26 15:07 50.59678 -4.49566 5992 ft 163 kts 60°
2026-04-26 15:07 50.60284 -4.47996 5995 ft 171 kts 59°
2026-04-26 15:08 50.60917 -4.46360 5990 ft 178 kts 59°
2026-04-26 15:08 50.61535 -4.44729 6325 ft 163 kts 60°
2026-04-26 15:08 50.62075 -4.43317 6772 ft 145 kts 60°
2026-04-26 15:08 50.62604 -4.41947 7002 ft 148 kts 59°
2026-04-26 15:09 50.63137 -4.40553 7217 ft 148 kts 59°
2026-04-26 15:09 50.63669 -4.39155 7422 ft 149 kts 60°
2026-04-26 15:09 50.64204 -4.37749 7651 ft 150 kts 60°
2026-04-26 15:09 50.64735 -4.36353 7901 ft 151 kts 60°
2026-04-26 15:10 50.65281 -4.34929 8174 ft 151 kts 60°
2026-04-26 15:10 50.65640 -4.33986 8366 ft 152 kts 60°
2026-04-26 15:10 50.66372 -4.32057 8715 ft 154 kts 61°
2026-04-26 15:10 50.66924 -4.30607 8972 ft 155 kts 61°
2026-04-26 15:11 50.67474 -4.29164 9251 ft 156 kts 61°
2026-04-26 15:11 50.68036 -4.27689 9524 ft 157 kts 61°
2026-04-26 15:11 50.68595 -4.26209 9777 ft 158 kts 62°
2026-04-26 15:11 50.69163 -4.24712 10016 ft 158 kts 62°
2026-04-26 15:12 50.69730 -4.23218 10244 ft 159 kts 62°
2026-04-26 15:12 50.70296 -4.21734 10433 ft 160 kts 61°
2026-04-26 15:12 50.70872 -4.20228 10673 ft 161 kts 61°
2026-04-26 15:12 50.71445 -4.18703 10882 ft 162 kts 61°
2026-04-26 15:13 50.72023 -4.17169 11092 ft 163 kts 61°
2026-04-26 15:13 50.72610 -4.15619 11249 ft 168 kts 60°
2026-04-26 15:13 50.73238 -4.13958 11252 ft 181 kts 60°
2026-04-26 15:13 50.73885 -4.12239 11251 ft 188 kts 61°
2026-04-26 15:14 50.74568 -4.10433 11256 ft 193 kts 60°
2026-04-26 15:14 50.75264 -4.08597 11257 ft 196 kts 60°
2026-04-26 15:14 50.75970 -4.06732 11259 ft 198 kts 60°
2026-04-26 15:14 50.76679 -4.04849 11256 ft 200 kts 60°
2026-04-26 15:15 50.77389 -4.02956 11255 ft 200 kts 60°
2026-04-26 15:15 50.78093 -4.01088 11257 ft 200 kts 60°
2026-04-26 15:15 50.78805 -3.99198 11261 ft 200 kts 60°
2026-04-26 15:15 50.79517 -3.97297 11259 ft 201 kts 61°
2026-04-26 15:16 50.80228 -3.95401 11263 ft 201 kts 61°
2026-04-26 15:16 50.80946 -3.93501 11262 ft 201 kts 60°
2026-04-26 15:16 50.81658 -3.91589 11264 ft 201 kts 61°
2026-04-26 15:16 50.82358 -3.89712 11266 ft 200 kts 61°
2026-04-26 15:17 50.83062 -3.87795 11265 ft 201 kts 62°
2026-04-26 15:17 50.83519 -3.86517 11263 ft 201 kts 62°
2026-04-26 15:17 50.84438 -3.83947 11268 ft 200 kts 62°
2026-04-26 15:17 50.85133 -3.82037 11268 ft 200 kts 62°
2026-04-26 15:18 50.85811 -3.80148 11271 ft 199 kts 62°
2026-04-26 15:18 50.86498 -3.78229 11271 ft 199 kts 62°
2026-04-26 15:18 50.87180 -3.76320 11270 ft 198 kts 62°
2026-04-26 15:18 50.87863 -3.74418 11276 ft 198 kts 62°
2026-04-26 15:19 50.88535 -3.72546 11274 ft 198 kts 62°
2026-04-26 15:19 50.89217 -3.70652 11278 ft 198 kts 62°
2026-04-26 15:19 50.89895 -3.68747 11272 ft 198 kts 63°
2026-04-26 15:19 50.90574 -3.66842 11272 ft 197 kts 62°
2026-04-26 15:20 50.91245 -3.64975 11275 ft 198 kts 63°
2026-04-26 15:20 50.91928 -3.63064 11275 ft 199 kts 62°
2026-04-26 15:20 50.92608 -3.61162 11280 ft 198 kts 62°
2026-04-26 15:20 50.93285 -3.59262 11277 ft 197 kts 62°
2026-04-26 15:21 50.94040 -3.57443 11274 ft 199 kts 48°
2026-04-26 15:21 50.95009 -3.55878 11270 ft 198 kts 46°
2026-04-26 15:21 50.95964 -3.54327 11276 ft 199 kts 47°
2026-04-26 15:21 50.96931 -3.52760 11272 ft 199 kts 46°
2026-04-26 15:22 50.97900 -3.51197 11270 ft 198 kts 46°
2026-04-26 15:22 50.98863 -3.49624 11272 ft 198 kts 46°
2026-04-26 15:22 50.99830 -3.48056 11272 ft 198 kts 46°
2026-04-26 15:22 51.00799 -3.46491 11271 ft 198 kts 46°
2026-04-26 15:23 51.01747 -3.44945 11267 ft 199 kts 46°
2026-04-26 15:23 51.02718 -3.43365 11271 ft 199 kts 46°
2026-04-26 15:23 51.03679 -3.41796 11266 ft 198 kts 47°
2026-04-26 15:23 51.04645 -3.40228 11268 ft 198 kts 46°
2026-04-26 15:24 51.05607 -3.38654 11267 ft 197 kts 47°
2026-04-26 15:24 51.06555 -3.37109 11264 ft 197 kts 47°
2026-04-26 15:24 51.07514 -3.35545 11262 ft 197 kts 46°
2026-04-26 15:24 51.08474 -3.33980 11265 ft 197 kts 47°
2026-04-26 15:25 51.09432 -3.32412 11264 ft 197 kts 47°
2026-04-26 15:25 51.10067 -3.31371 11265 ft 197 kts 47°
2026-04-26 15:25 51.11340 -3.29294 11267 ft 198 kts 46°
2026-04-26 15:25 51.12302 -3.27720 11267 ft 199 kts 47°
2026-04-26 15:26 51.13262 -3.26144 11263 ft 198 kts 46°
2026-04-26 15:26 51.14226 -3.24568 11272 ft 199 kts 46°
2026-04-26 15:26 51.15186 -3.22989 11260 ft 197 kts 46°
2026-04-26 15:26 51.16132 -3.21442 11265 ft 197 kts 46°
2026-04-26 15:27 51.17083 -3.19880 11265 ft 196 kts 47°
2026-04-26 15:27 51.18036 -3.18309 11267 ft 197 kts 46°
2026-04-26 15:27 51.18993 -3.16736 11263 ft 197 kts 46°
2026-04-26 15:27 51.19935 -3.15187 11264 ft 197 kts 46°
2026-04-26 15:28 51.20885 -3.13622 11263 ft 196 kts 46°
2026-04-26 15:28 51.21829 -3.12066 11262 ft 195 kts 47°
2026-04-26 15:28 51.22778 -3.10504 11260 ft 195 kts 47°
2026-04-26 15:28 51.23724 -3.08945 11261 ft 195 kts 46°
2026-04-26 15:29 51.24653 -3.07412 11267 ft 194 kts 47°
2026-04-26 15:29 51.25594 -3.05857 11263 ft 194 kts 47°
2026-04-26 15:29 51.27470 -3.02755 11264 ft 194 kts 47°
2026-04-26 15:30 51.29333 -2.99658 11260 ft 194 kts 49°
2026-04-26 15:30 51.30229 -2.98034 11265 ft 194 kts 48°
2026-04-26 15:30 51.31153 -2.96440 11262 ft 195 kts 48°
2026-04-26 15:31 51.32068 -2.94835 11259 ft 195 kts 49°
2026-04-26 15:31 51.33879 -2.91622 11263 ft 196 kts 49°
2026-04-26 15:31 51.34802 -2.89993 11263 ft 196 kts 49°
2026-04-26 15:32 51.36011 -2.87841 11258 ft 196 kts 49°
2026-04-26 15:32 51.37526 -2.85154 11262 ft 195 kts 49°
2026-04-26 15:32 51.38440 -2.83538 11264 ft 196 kts 49°
2026-04-26 15:33 51.39352 -2.81918 11259 ft 195 kts 49°
2026-04-26 15:33 51.40258 -2.80303 11266 ft 195 kts 49°
2026-04-26 15:33 51.41166 -2.78687 11260 ft 194 kts 49°
2026-04-26 15:33 51.42059 -2.77095 11262 ft 195 kts 49°
2026-04-26 15:34 51.42961 -2.75483 11260 ft 194 kts 49°
2026-04-26 15:34 51.43868 -2.73873 11259 ft 194 kts 49°
2026-04-26 15:34 51.44771 -2.72264 11264 ft 194 kts 49°
2026-04-26 15:34 51.45675 -2.70651 11263 ft 195 kts 49°
2026-04-26 15:35 51.46568 -2.69045 11266 ft 195 kts 49°
2026-04-26 15:35 51.47474 -2.67422 11264 ft 195 kts 49°
2026-04-26 15:35 51.48383 -2.65805 11267 ft 194 kts 49°
2026-04-26 15:35 51.49290 -2.64184 11262 ft 195 kts 49°
2026-04-26 15:36 51.50179 -2.62587 11156 ft 185 kts 50°
2026-04-26 15:36 51.51055 -2.61003 10533 ft 192 kts 49°
2026-04-26 15:36 51.51949 -2.59406 10010 ft 191 kts 49°
2026-04-26 15:36 51.52711 -2.57711 9455 ft 188 kts 57°
2026-04-26 15:37 51.53453 -2.55989 8876 ft 187 kts 56°
2026-04-26 15:37 51.54189 -2.54278 8255 ft 184 kts 56°
2026-04-26 15:37 51.54915 -2.52584 7618 ft 183 kts 56°
2026-04-26 15:37 51.55621 -2.50932 6999 ft 180 kts 56°
2026-04-26 15:38 51.56330 -2.49278 6317 ft 179 kts 56°
2026-04-26 15:38 51.57029 -2.47650 5633 ft 175 kts 57°
2026-04-26 15:38 51.57714 -2.46050 4951 ft 171 kts 57°
2026-04-26 15:38 51.58358 -2.44537 4616 ft 151 kts 57°
2026-04-26 15:39 51.58844 -2.43216 4360 ft 129 kts 78°
2026-04-26 15:39 51.58915 -2.41778 4128 ft 140 kts 89°
2026-04-26 15:39 51.58957 -2.40097 3910 ft 158 kts 90°
2026-04-26 15:39 51.58975 -2.39515 3855 ft 162 kts 88°
2026-04-26 15:40 51.59070 -2.36358 3538 ft 172 kts 89°
2026-04-26 15:40 51.59136 -2.34502 3540 ft 165 kts 89°
2026-04-26 15:40 51.59205 -2.32648 3525 ft 166 kts 89°
2026-04-26 15:40 51.59264 -2.30786 3513 ft 165 kts 89°
2026-04-26 15:41 51.59332 -2.28967 3513 ft 162 kts 89°
2026-04-26 15:41 51.59395 -2.27189 3518 ft 163 kts 88°
2026-04-26 15:41 51.59465 -2.25358 3529 ft 164 kts 89°
2026-04-26 15:41 51.59521 -2.23517 3534 ft 166 kts 89°
2026-04-26 15:42 51.59589 -2.21654 3534 ft 170 kts 88°
2026-04-26 15:42 51.59657 -2.19751 3519 ft 170 kts 89°
2026-04-26 15:42 51.59718 -2.17853 3533 ft 169 kts 90°
2026-04-26 15:42 51.59781 -2.15973 3522 ft 167 kts 89°
2026-04-26 15:43 51.59845 -2.14140 3514 ft 166 kts 90°
2026-04-26 15:43 51.59903 -2.12317 3523 ft 161 kts 89°
2026-04-26 15:43 51.60026 -2.08739 3518 ft 163 kts 90°
2026-04-26 15:44 51.60104 -2.06894 3523 ft 166 kts 88°
2026-04-26 15:44 51.60203 -2.03201 3514 ft 164 kts 89°
2026-04-26 15:44 51.60272 -2.01392 3532 ft 162 kts 89°
2026-04-26 15:45 51.60368 -1.98409 3525 ft 160 kts 89°
2026-04-26 15:45 51.60433 -1.96595 3500 ft 165 kts 89°
2026-04-26 15:46 51.60553 -1.92380 3494 ft 165 kts 89°
2026-04-26 15:46 51.60596 -1.91146 3506 ft 162 kts 88°
2026-04-26 15:46 51.60663 -1.89329 3317 ft 168 kts 89°
2026-04-26 15:46 51.60719 -1.88038 3152 ft 174 kts 89°
2026-04-26 15:47 51.60915 -1.85446 2832 ft 182 kts 72°
2026-04-26 15:47 51.62645 -1.82509 2519 ft 182 kts 24°
2026-04-26 15:47 51.63861 -1.82100 2515 ft 176 kts
2026-04-26 15:48 51.65057 -1.82338 2525 ft 176 kts 351°
2026-04-26 15:48 51.66275 -1.82656 2512 ft 174 kts 351°
2026-04-26 15:48 51.67418 -1.83313 2513 ft 177 kts 328°
2026-04-26 15:48 51.68265 -1.84687 2514 ft 171 kts 301°
2026-04-26 15:49 51.68672 -1.86443 2524 ft 165 kts 276°
2026-04-26 15:49 51.68617 -1.88286 2463 ft 166 kts 261°
2026-04-26 15:49 51.68429 -1.90143 2249 ft 171 kts 259°
2026-04-26 15:49 51.68227 -1.92052 2014 ft 174 kts 257°
2026-04-26 15:50 51.68027 -1.93988 1777 ft 174 kts 259°
2026-04-26 15:50 51.67831 -1.95908 1530 ft 169 kts 258°
2026-04-26 15:50 51.67670 -1.97504 1341 ft 120 kts 258°
2026-04-26 15:50 51.67544 -1.98702 1174 ft 98 kts 256°
2026-04-26 15:51 51.67445 -1.99683 1039 ft 84 kts 256°
2026-04-26 15:51 51.67351 -2.00632 991 ft 89 kts 255°
2026-04-26 15:51 51.67241 -2.01641 841 ft 94 kts 255°
2026-04-26 15:51 51.67127 -2.02681 700 ft 95 kts 256°
2026-04-26 15:52 51.67015 -2.03712 559 ft 90 kts 257°
2026-04-26 15:52 51.66914 -2.04678 417 ft 80 kts 257°
2026-04-26 15:52 51.66845 -2.05331 415 ft 44 kts 261°
2026-04-26 15:52 51.66816 -2.05610 420 ft 33 kts 259°
2026-04-26 15:53 51.66803 -2.05987 429 ft 20 kts 307°
2026-04-26 15:53 51.66874 -2.06159 423 ft 17 kts 306°
2026-04-26 15:53 51.66882 -2.06249 430 ft 0 kts 128°
2026-04-26 15:53 51.66874 -2.06247 429 ft 1 kts 128°
2026-04-26 15:54 51.66873 -2.06242 420 ft 0 kts 77°